Location: Dompnac
(44.5644°N, 4.1026°E)
Time: 12:47:10
(UTC+00:00)

Cosmos 2026 Rocket - Pass Details

Date: 21 January 2021
Orbit: 940 x 1000 km, 82.9° (Epoch: 28 February)

Event Time Altitude Azimuth Distance (km) Brightness Sun altitude
Rises 19:55:22 0° 218° (SW) 3,604 7.3 -34.9°
Reaches altitude 10° 19:58:09 10° 228° (SW) 2,670 6.7 -35.4°
Maximum altitude 20:03:27 31° 289° (WNW) 1,630 5.6 -36.4°
Drops below altitude 10° 20:08:52 10° 350° (N) 2,718 6.5 -37.3°
Sets 20:11:45 0° 1° (N) 3,680 7.1 -37.8°
